Vorticity
nan nan nan nan nan nan nan nan nan nan nan nan nan nan nan nan nan nan nan nan nan nan nan nan nan nan nan nan nan nan nan nan nan
nan 6 5 5 7 8 6 4 3 4 4 3 2 2 9 12 6 6 4 7 6 5 5 5 6 6 6 6 5 5 5 6 nan
nan 6 4 5 6 7 6 5 4 4 4 3 2 3 7 9 8 6 5 8 5 5 5 5 5 5 5 5 5 6 5 5 nan
nan 8 3 5 5 5 4 6 6 5 4 3 3 3 5 10 9 5 5 6 5 5 5 5 5 5 5 5 5 5 5 5 nan
nan 6 5 4 4 4 5 6 8 6 3 3 3 3 8 10 8 5 9 6 4 4 4 5 5 5 5 5 4 5 5 5 nan
nan 6 9 6 7 6 5 4 5 4 4 4 4 7 9 10 7 9 10 4 3 4 4 4 4 4 4 4 4 4 5 5 nan
nan 6 8 7 7 5 5 4 4 2 3 6 7 7 8 9 8 11 8 4 4 4 4 4 4 4 4 4 4 4 4 4 nan
nan 6 6 7 5 4 5 5 5 5 6 7 7 8 8 6 9 10 7 4 4 4 5 5 4 4 5 5 4 3 4 4 nan
nan 6 6 6 6 7 5 6 8 8 7 6 8 9 6 6 9 10 7 5 5 5 5 6 7 6 7 7 7 7 7 7 nan
nan 7 7 7 7 8 8 7 8 8 7 7 9 7 7 7 8 11 9 6 5 5 5 6 8 11 9 9 10 11 10 9 nan
nan 8 7 8 8 8 8 7 8 8 9 9 8 6 6 10 8 9 10 9 5 6 5 5 6 14 14 9 10 8 7 7 nan
nan 8 8 8 8 8 7 7 8 8 9 8 7 9 9 7 7 7 8 11 12 7 6 6 7 9 13 14 9 6 5 5 nan
nan 7 8 8 7 8 8 8 8 8 8 8 8 9 9 7 10 7 9 10 13 12 12 10 8 8 14 17 8 6 5 4 nan
nan 7 8 7 7 8 7 8 7 8 8 8 9 9 8 8 7 7 8 10 11 13 11 6 10 13 16 16 7 4 4 4 nan
nan 8 8 7 7 8 8 8 7 8 8 9 9 7 7 8 8 10 8 8 7 12 10 3 6 13 23 14 7 5 3 3 nan
nan 6 9 10 9 7 7 8 7 6 8 8 9 10 9 8 7 7 8 8 6 9 10 8 6 5 12 12 9 6 5 4 nan
nan 7 9 9 8 9 12 10 9 9 9 5 7 8 9 10 8 7 7 7 7 7 10 12 8 7 4 5 6 6 7 6 nan
nan 8 8 7 9 8 7 8 10 12 9 11 8 10 9 7 8 9 7 7 7 7 6 8 10 10 9 7 5 5 6 8 nan
nan 8 9 7 7 8 7 9 9 9 9 9 8 10 11 9 9 8 8 9 9 8 7 7 7 7 8 6 5 7 9 13 nan
nan nan nan nan nan nan nan nan nan nan nan nan nan nan nan nan nan nan nan nan nan nan nan nan nan nan nan nan nan nan nan nan nan
CAPE
415 755 611 217 125 88 4 5 1 0 0 0 0 0 0 0 0 0 0 0 0 0 0 0 0 0 0 0 0 0 0 0 1
632 620 243 227 541 523 145 57 5 0 0 0 0 0 0 0 0 0 0 0 0 0 0 0 0 0 0 0 0 0 0 0 0
660 297 160 266 386 199 157 108 55 4 0 0 0 0 0 0 0 0 0 0 0 0 0 0 0 0 0 0 0 0 0 0 0
344 129 20 432 323 251 96 69 128 36 0 0 0 0 0 0 0 0 0 0 0 0 0 0 0 0 0 0 0 0 0 0 0
81 30 70 380 436 496 191 36 131 125 1 0 0 0 0 0 0 0 0 0 0 0 0 0 0 0 0 0 0 0 0 0 0
9 9 40 156 276 444 173 24 10 5 0 0 0 0 0 0 0 0 0 0 0 0 0 0 0 0 0 0 0 0 0 0 0
10 14 14 97 133 197 167 40 0 0 0 0 0 0 0 0 0 0 0 0 0 0 0 0 0 0 0 0 0 0 0 0 0
1 8 15 7 28 26 30 3 0 0 0 0 0 0 0 0 0 0 0 0 0 11 35 36 19 11 7 0 0 0 0 0 0
0 1 2 0 0 0 0 0 0 0 0 0 0 0 0 0 0 0 0 0 0 0 33 65 106 133 83 85 54 40 17 9 2
0 0 0 0 0 0 0 0 0 0 0 0 0 0 0 0 0 0 0 0 0 0 3 33 61 96 60 78 57 64 62 53 57
0 0 0 0 0 0 0 0 0 0 0 0 0 0 0 0 0 0 0 0 0 0 0 21 35 68 35 55 47 40 46 31 23
0 0 0 0 0 0 0 0 0 0 0 0 0 0 0 3 3 0 0 0 0 3 12 14 32 38 55 49 56 46 1 0 0
0 3 2 1 0 0 0 0 0 0 0 0 0 0 1 1 10 0 0 0 3 0 0 0 0 0 20 74 45 11 0 0 0
53 78 74 46 9 4 0 0 0 0 0 0 2 7 2 2 0 0 0 0 0 0 0 0 0 0 28 77 53 0 0 0 0
95 104 110 62 30 30 16 0 0 0 0 9 6 0 0 3 9 0 0 0 0 0 0 0 0 0 6 74 4 0 0 0 0
190 216 204 144 94 61 25 4 0 0 5 14 26 6 1 6 0 0 0 0 0 0 0 3 0 0 0 3 2 0 0 0 0
306 261 329 315 273 249 93 7 4 4 23 22 19 18 2 0 0 0 0 0 0 0 0 0 1 0 0 0 0 0 0 0 0
324 325 341 207 188 133 89 39 99 39 26 34 19 4 0 0 0 0 0 0 0 0 0 0 0 0 0 0 0 0 0 0 0
294 215 217 201 208 123 45 5 24 70 80 3 0 0 0 0 0 0 0 0 0 0 0 0 0 0 0 0 0 0 0 15 3
187 177 157 131 88 30 0 0 0 0 1 6 0 0 0 0 0 0 0 0 0 0 0 0 0 0 0 0 0 0 0 31 52